Weather in Tyvriv

Ukraine / Vinnytsia Region     49°00′43″N   28°30′13″E
temp.,
°C
wind,
m/s
gust,
m/s
humid.,
%
clouds,
%
prec.,
mm/h
press.,
hPa
HPBL,
m
23 april, fri
fri2300:00+8ssw378795 1.3 1015119
03:00+6nnw6109325 1.6 1016378
06:00+6nnw5886100 0.2 1017549
09:00+6nnw3577100 0.7 1019630
12:00+8nw3556100 0.0 10191352
15:00+10wnw4545100 0.0 10181796
18:00+9wnw575463 0.4 10181468
21:00+5wnw38796 0.6 1020191
24 april, sat
sat2400:00+3wnw410780 0.0 1021211
03:00+2w378135 0.0 1021140
06:00+1w398533 0.0 1020185
09:00+5wnw8117156 0.2 10211199
12:00+7nw694691 0.3 10222068
15:00+8wnw7944100 0.3 10222312
18:00+8nw684746 0.0 10221897
21:00+4nw22665 0.0 102320
25 april, sun
sun2500:00+3sw22695 0.0 102324
03:00+2ssw367646 0.0 102294
06:00+1sw36848 0.0 1021100
09:00+5w5890100 0.2 1021750
12:00+4wnw5889100 0.3 1021490
15:00+8nnw567187 0.6 1019985
18:00+8nw6753100 0.1 10191383
21:00+3nw34635 0.1 102047
26 april, mon
mon2600:00+1nnw22652 0.0 102111
03:00+1w126613 0.0 102010
06:00+1w346643 0.0 102082
09:00+6w45555 0.0 1020628
12:00+9w453885 0.0 10192269
15:00+10w4635100 0.0 10172355
18:00+10wnw3441100 0.0 10161991
21:00+5ne236743 0.0 101737
27 april, tue
tue2700:00+4ese3670100 0.0 1016112
03:00+4ese2379100 0.5 101491
06:00+4w139096 0.1 1013176
09:00+4nw6988100 0.7 1015730
12:00+8nnw4652100 0.0 10151253
15:00+11n3343100 0.0 10141395
18:00+11e224499 0.0 10141256
21:00+6e4666100 0.0 1015104